Temperature
15 16 16 17 17 17 16 15 14 15 15 15 14 14 14 15 14 14 14 14 14 13 13 13 13 13 13 13 13 13 13 13 13 12 12 12 12 12 12 12 12 12 12 12
15 16 16 16 16 16 16 16 15 15 15 14 15 15 14 14 14 14 14 14 13 13 13 13 13 12 12 12 12 12 12 12 12 12 12 12 12 12 12 12 12 12 12 12
13 14 15 15 16 16 16 16 15 15 14 14 13 13 14 14 13 13 13 13 13 13 13 12 12 12 12 12 12 12 12 12 12 12 12 12 12 11 11 11 11 11 11 11
12 14 14 15 15 16 15 15 15 15 14 14 14 14 14 14 14 13 13 13 13 13 12 12 12 12 12 11 11 11 11 11 11 11 11 11 11 11 11 11 11 11 11 11
11 12 13 15 16 16 15 14 14 14 14 14 13 13 13 14 13 13 13 13 12 12 12 12 12 11 11 11 11 11 11 11 11 11 11 11 11 11 11 11 11 10 10 11
11 13 13 14 15 16 15 13 14 14 13 13 13 11 11 13 13 13 13 12 12 12 12 12 11 11 11 11 11 11 11 10 10 11 11 11 11 10 10 10 10 10 10 10
11 12 12 14 15 15 14 13 14 14 14 13 12 12 13 13 13 12 12 12 12 12 11 11 11 11 10 10 10 10 10 10 10 10 10 10 10 10 10 10 10 10 10 10
10 11 12 14 14 13 13 14 14 14 14 14 13 13 13 12 12 12 12 11 11 11 11 11 10 10 10 10 10 10 10 10 10 10 10 10 9 9 9 9 9 9 9 9
11 12 13 14 14 15 15 14 14 14 14 13 13 12 12 12 12 12 11 11 10 10 10 10 10 10 10 9 9 9 9 9 9 9 9 9 9 9 9 9 9 9 9 9
11 11 13 14 14 14 14 14 14 14 13 13 12 12 12 11 11 11 11 10 10 10 10 10 9 9 9 9 9 9 9 9 9 9 9 9 9 8 8 8 8 8 8 8
10 11 12 13 13 13 13 13 13 13 13 12 12 12 11 11 11 10 10 10 10 10 9 9 9 9 9 9 9 9 8 8 8 8 8 8 8 8 8 8 8 8 8 8
10 11 11 12 13 13 13 13 12 12 12 12 11 11 11 10 10 10 10 10 9 9 9 9 9 9 8 8 8 8 8 8 8 8 8 8 8 8 8 8 7 7 7 7
13 13 13 12 12 12 12 12 12 12 11 11 11 10 10 10 10 10 9 9 9 9 9 8 8 8 8 8 8 8 7 7 7 7 7 7 7 7 7 7 7 7 7 7
13 12 12 12 12 12 12 11 11 11 11 10 10 10 10 10 9 9 9 9 9 8 8 8 8 8 8 8 8 7 7 7 7 7 7 7 7 7 6 6 6 6 6 6
12 12 12 12 11 11 11 11 11 10 10 10 10 9 9 9 9 9 9 8 8 8 8 8 8 8 7 7 7 7 7 7 6 6 6 6 6 6 6 6 6 6 6 6
12 11 11 11 11 11 10 10 10 10 10 9 9 9 9 9 8 8 8 8 8 8 8 7 7 7 7 7 7 7 7 6 6 6 6 6 6 6 5 5 5 5 5 5
11 11 11 10 10 10 10 10 10 9 9 9 9 8 8 8 8 8 8 8 8 8 7 7 7 7 7 7 7 7 6 6 6 6 5 5 5 5 5 5 5 5 5 5
11 11 11 11 10 10 9 9 9 9 9 8 8 8 8 8 7 7 7 7 7 7 7 7 7 7 6 6 6 6 6 6 6 5 5 5 5 5 5 5 4 4 4 4
11 10 10 10 10 9 9 9 8 8 8 8 8 7 7 7 7 7 7 7 7 7 7 6 6 6 6 6 6 6 6 5 5 5 5 5 4 4 4 4 4 4 4 4
10 10 10 9 9 9 8 8 8 8 8 7 7 7 7 7 7 6 6 6 6 6 6 6 6 6 6 6 6 5 5 5 5 5 5 4 4 4 4 4 4 4 3 3
10 9 9 9 8 8 8 8 8 7 7 7 7 7 6 6 6 6 6 6 6 6 5 5 5 5 5 5 5 5 5 5 5 4 4 4 4 4 3 3 3 3 3 3
9 9 8 8 8 8 7 7 7 7 7 7 6 6 6 6 6 5 5 5 5 5 5 5 5 5 5 5 5 5 5 5 4 4 4 4 3 3 3 3 3 3 3 3
8 8 8 8 7 7 7 7 7 7 6 6 6 6 6 5 5 5 5 5 5 4 4 4 4 4 4 4 4 4 4 4 4 4 3 3 3 3 3 3 3 3 2 2
8 8 7 7 7 7 7 6 6 6 6 6 6 5 5 5 5 5 5 4 4 4 4 4 4 4 4 4 4 3 3 3 3 3 3 3 3 3 2 2 2 2 2 2
7 7 7 7 7 6 6 6 6 6 6 5 5 5 5 5 4 4 4 4 4 3 3 3 3 3 3 3 3 3 3 3 3 2 2 2 2 2 2 2 2 2 2 2
7 7 6 6 6 6 6 6 5 5 5 5 5 5 4 4 4 4 4 3 3 3 3 3 3 3 3 3 2 2 2 2 2 2 2 2 2 2 2 2 2 2 2 2
6 6 6 6 6 6 5 5 5 5 5 4 4 4 4 4 4 3 3 3 3 3 3 2 2 2 2 2 2 2 2 2 1 1 1 1 1 1 1 1 1 1 1 1
Wind_Speed
5 6 4 5 7 6 5 7 7 7 7 7 6 6 5 4 4 3 2 1 1 1 0 1 1 1 1 1 1 1 1 1 1 1 1 1 0 0 0 0 2 3 3 2
4 4 4 6 7 6 5 4 5 4 5 3 3 3 3 3 4 3 3 3 2 1 1 0 1 1 1 1 2 1 1 1 1 1 1 0 1 0 0 1 1 1 2 2
4 5 4 5 6 5 3 3 4 5 6 3 3 4 4 4 3 3 3 3 3 3 2 2 2 2 2 2 2 1 1 0 1 1 1 1 1 0 1 1 0 0 1 1
1 2 4 7 4 2 2 2 2 3 3 5 4 4 3 4 4 3 3 2 3 3 2 2 2 2 2 2 1 1 1 1 1 1 1 1 1 1 1 1 1 1 1 2
2 2 6 7 4 1 2 3 1 2 2 2 2 3 2 1 3 4 4 4 3 3 3 2 2 2 1 1 1 1 2 2 2 2 2 2 2 2 2 1 1 1 2 2
3 3 6 6 4 1 3 2 2 3 3 3 3 1 4 3 1 2 1 2 2 1 1 1 2 2 1 2 2 3 3 3 3 2 3 3 3 2 1 1 2 2 2 2
4 5 7 6 3 2 2 5 3 2 3 3 3 4 4 2 1 1 1 1 1 1 1 3 2 2 2 3 4 4 4 3 2 2 2 3 2 2 1 1 1 2 2 2
4 4 7 4 2 3 5 3 1 2 2 2 2 2 1 1 1 1 0 0 0 0 2 3 2 2 2 3 4 3 2 2 2 2 2 1 1 1 1 2 1 2 2 2
7 7 5 3 3 3 3 2 2 2 2 2 2 2 2 2 1 1 1 1 1 1 2 3 2 2 3 3 2 1 1 2 2 2 2 1 2 2 1 1 2 2 2 2
3 5 4 3 1 1 1 2 2 2 3 3 3 3 2 2 2 2 1 2 1 1 2 3 3 2 3 3 2 1 1 2 1 1 1 2 1 2 2 2 3 3 3 3
4 5 2 3 3 2 1 1 1 1 2 3 3 3 3 3 3 3 2 2 2 2 3 4 3 2 2 2 1 1 1 1 1 1 1 2 2 2 3 3 4 4 4 3
7 7 5 5 4 3 2 2 2 1 1 1 3 3 3 3 3 3 3 2 2 3 3 4 3 3 3 3 2 2 1 1 1 1 1 1 1 3 4 3 5 5 5 4
6 5 4 4 4 2 2 2 2 2 3 2 2 2 3 3 3 3 3 3 3 4 4 3 3 3 3 3 2 2 2 3 2 2 2 2 2 2 3 4 4 4 4 5
4 2 3 4 4 3 2 2 1 1 2 2 2 2 2 2 2 3 4 4 4 4 3 3 3 4 3 3 2 2 3 3 2 2 2 2 3 3 3 2 3 3 4 5
4 4 5 3 2 2 1 1 0 1 2 2 2 2 2 2 3 4 4 4 3 3 3 3 3 4 3 2 3 3 3 2 3 3 3 3 3 3 2 3 3 3 3 4
3 1 2 2 2 2 2 2 2 3 3 3 2 3 3 4 4 4 4 3 3 4 4 4 4 4 3 3 3 3 3 5 4 3 2 2 2 2 3 3 3 3 3 3
3 3 3 3 4 3 3 3 4 4 3 3 4 4 3 3 3 3 4 3 4 4 4 4 4 4 3 3 3 3 3 4 5 3 3 3 3 3 3 3 3 4 4 4
7 7 6 6 5 3 3 3 3 3 3 4 3 2 2 3 4 4 4 3 2 3 3 4 3 3 3 3 4 3 4 3 3 3 3 3 3 3 3 3 4 4 4 4
3 3 3 3 3 3 2 3 3 3 3 2 2 3 3 3 3 3 3 2 2 3 4 4 4 2 3 4 4 3 3 3 3 3 3 3 3 3 3 3 3 4 3 3
1 2 2 2 1 1 1 2 2 2 2 2 2 2 2 3 3 3 2 3 3 4 4 4 3 3 3 4 4 2 3 3 4 3 3 3 3 3 3 3 3 3 3 4
1 1 1 1 1 1 1 1 1 2 2 1 1 2 3 3 3 2 2 3 4 3 3 3 2 3 3 2 2 2 2 3 3 3 3 3 3 3 3 3 3 4 4 4
1 1 1 1 1 1 2 2 2 2 2 2 2 2 2 3 3 2 3 4 4 4 2 2 2 3 3 2 1 1 2 2 3 3 3 3 3 3 3 3 4 4 4 4
1 1 1 2 2 2 3 2 2 2 2 2 2 2 3 3 2 2 4 3 2 3 2 2 3 4 3 1 1 1 2 2 2 2 3 3 3 3 4 4 4 4 4 4
1 2 2 2 1 1 2 4 3 2 2 2 2 3 2 2 2 3 3 3 3 3 2 3 4 3 1 0 1 1 2 2 2 2 3 3 3 3 4 4 4 4 5 5
2 2 1 1 1 2 3 3 3 3 2 2 3 3 2 2 2 3 2 2 3 2 2 3 3 2 1 1 1 1 2 2 3 2 2 3 3 4 4 4 4 4 5 5
2 2 3 3 3 3 2 2 2 2 2 2 3 3 2 1 1 1 1 2 2 2 2 2 2 1 0 1 2 2 2 3 3 3 3 3 4 4 4 4 5 5 5 5
2 2 1 1 2 2 2 2 2 2 2 2 3 3 2 1 1 1 1 1 1 1 1 1 1 1 1 1 2 2 2 2 3 3 3 3 4 4 4 5 4 4 5 5
Wind_Direction
240 257 261 260 268 261 226 206 207 225 219 231 214 198 189 168 139 117 121 127 142 154 245 314 334 337 267 252 241 174 135 148 198 224 214 195 195 237 240 175 180 180 174 182
295 293 298 286 272 258 248 227 209 214 242 235 192 168 155 153 149 157 189 198 196 199 207 256 317 315 294 277 251 198 162 199 221 213 176 171 209 188 143 178 190 155 169 183
271 298 330 284 260 230 235 243 193 215 227 184 157 169 177 175 174 191 206 210 197 203 217 231 250 256 255 268 268 218 184 204 232 211 207 215 224 173 192 220 194 115 202 184
241 344 252 249 268 197 177 286 216 177 187 179 188 197 183 171 173 200 208 210 216 212 219 233 255 267 281 295 253 231 258 258 279 254 235 228 189 197 213 205 193 207 234 222
151 235 273 285 285 210 186 292 288 156 146 129 107 45 334 245 188 201 211 211 218 209 204 215 235 251 284 286 252 233 260 259 254 239 225 219 208 216 215 180 197 222 233 226
158 207 244 249 271 289 95 274 276 147 157 157 106 38 269 261 224 210 205 193 193 195 196 216 242 219 206 253 238 245 254 255 252 244 223 217 214 215 221 195 211 220 246 239
192 227 260 258 272 56 180 241 256 183 176 167 187 216 231 213 193 182 177 186 176 168 226 242 237 191 225 252 247 255 257 256 262 255 242 221 208 208 205 208 218 234 247 261
177 209 251 256 128 177 220 243 223 203 184 166 190 190 187 184 170 161 139 320 140 223 280 273 241 196 224 241 249 258 264 273 274 269 263 252 200 214 217 196 206 250 266 283
196 219 246 243 216 228 189 186 208 195 215 177 175 208 213 217 216 219 215 255 266 238 283 293 269 214 207 244 246 242 256 268 272 289 287 255 211 212 224 218 217 245 252 259
241 259 265 276 275 266 187 180 196 189 190 182 199 218 225 228 244 248 253 253 248 253 278 283 277 228 214 234 241 208 250 271 274 284 317 308 266 226 217 225 230 242 246 253
255 269 298 296 274 233 207 159 170 212 209 194 192 208 217 230 237 244 258 260 242 225 246 266 272 248 237 229 191 181 268 279 290 296 285 306 297 273 255 243 236 237 241 236
235 237 215 242 256 244 225 242 212 206 275 238 199 204 218 230 234 237 253 263 255 240 242 256 250 248 246 231 196 181 239 267 258 265 275 271 285 313 308 288 286 269 263 255
228 238 234 249 255 243 225 233 224 213 215 231 233 218 220 234 241 251 261 255 247 244 242 247 240 244 243 231 210 204 231 246 244 244 251 255 253 263 300 319 314 293 279 273
212 194 240 250 251 260 246 232 216 213 232 212 222 231 226 250 257 255 254 247 244 244 246 244 240 248 243 217 206 221 239 249 256 244 247 245 249 256 256 272 302 306 298 287
244 224 221 236 244 258 246 235 268 291 277 268 261 247 246 248 253 257 256 252 245 244 250 250 244 253 241 214 212 224 233 235 241 244 247 245 250 258 264 269 276 289 306 310
238 231 192 188 214 242 247 237 238 259 264 261 250 252 252 245 251 261 263 245 231 239 247 240 246 250 234 220 221 231 236 255 259 249 248 251 252 254 259 265 272 274 279 287
194 219 226 229 229 237 239 238 235 245 250 248 242 246 257 265 267 268 268 253 234 237 237 231 247 252 244 227 223 229 233 247 262 258 244 247 248 248 251 257 264 269 272 277
211 215 215 212 215 224 251 260 256 255 250 253 251 246 248 252 251 257 264 259 259 264 253 246 247 258 248 243 236 231 226 228 231 238 242 247 253 250 249 252 257 266 281 286
216 210 205 198 193 195 225 259 265 264 261 247 235 237 241 244 246 253 258 249 242 264 273 265 271 273 256 255 255 231 224 224 229 236 241 250 257 258 256 256 262 265 274 283
186 182 175 179 174 184 246 273 278 283 277 250 232 244 264 267 262 255 246 235 235 248 258 264 262 256 258 262 267 232 230 223 222 231 238 238 245 257 260 263 265 268 272 276
166 173 183 186 231 294 283 287 276 287 291 257 230 240 251 264 265 254 240 264 271 263 259 269 268 263 262 272 269 241 231 226 226 229 234 238 246 255 260 265 269 269 272 276
213 219 225 212 214 289 296 284 269 280 285 277 268 263 267 276 278 274 255 252 261 271 264 255 263 273 284 286 258 250 245 237 231 228 231 236 242 250 256 262 265 271 272 271
222 223 227 235 233 259 292 294 284 282 275 260 256 263 261 259 252 258 280 280 265 274 282 259 277 288 291 291 269 262 260 252 239 231 233 238 245 248 251 257 262 266 266 268
231 250 255 258 259 306 298 295 294 289 283 275 267 261 254 264 280 269 261 270 275 284 287 283 292 295 299 271 264 274 275 269 262 254 252 255 256 258 259 262 265 267 267 270
224 226 240 251 260 263 267 285 299 304 305 303 298 292 277 249 254 272 274 260 270 289 294 288 306 317 353 308 280 279 276 269 272 275 273 275 274 272 269 266 264 266 268 269
231 229 231 232 236 244 251 260 273 288 295 311 311 304 304 304 298 287 280 273 266 286 302 297 293 287 303 295 293 291 288 286 289 290 285 281 280 280 280 279 277 272 269 269
248 245 244 267 277 260 252 252 261 273 265 260 287 296 298 310 319 301 296 296 289 287 299 304 296 278 270 273 278 279 284 287 289 287 284 284 283 281 283 284 283 279 274 272
Height
1528 1524 1523 1522 1520 1518 1521 1525 1531 1526 1524 1520 1518 1517 1517 1517 1517 1518 1518 1518 1518 1518 1517 1517 1516 1516 1516 1515 1515 1514 1514 1513 1513 1513 1513 1513 1513 1513 1513 1513 1513 1514 1514 1515
1528 1523 1522 1521 1517 1516 1516 1516 1518 1519 1520 1515 1515 1515 1516 1516 1516 1516 1517 1517 1517 1517 1516 1515 1515 1514 1513 1513 1513 1512 1512 1511 1511 1511 1511 1510 1510 1510 1510 1510 1511 1511 1511 1512
1534 1526 1523 1526 1517 1515 1514 1512 1513 1518 1516 1513 1514 1514 1514 1515 1515 1515 1515 1516 1515 1515 1515 1514 1513 1512 1511 1510 1510 1510 1509 1509 1509 1509 1508 1508 1508 1507 1507 1507 1508 1508 1509 1509
1535 1532 1535 1522 1510 1509 1511 1510 1509 1509 1510 1510 1510 1511 1512 1513 1513 1513 1513 1513 1513 1513 1512 1512 1511 1510 1509 1509 1508 1507 1507 1506 1506 1506 1505 1505 1505 1505 1505 1504 1505 1505 1505 1506
1537 1537 1530 1518 1510 1509 1511 1512 1509 1508 1508 1509 1509 1509 1510 1511 1511 1511 1511 1511 1511 1510 1510 1510 1509 1508 1507 1506 1506 1505 1504 1503 1503 1503 1503 1502 1502 1502 1502 1502 1502 1502 1502 1502
1535 1534 1533 1518 1508 1506 1509 1514 1509 1507 1507 1508 1508 1512 1510 1508 1508 1509 1508 1508 1508 1508 1507 1507 1506 1505 1504 1503 1503 1502 1502 1501 1501 1500 1500 1500 1499 1499 1499 1499 1499 1499 1499 1499
1532 1532 1524 1511 1506 1507 1517 1515 1507 1506 1506 1506 1507 1508 1507 1506 1506 1506 1506 1505 1505 1505 1504 1504 1503 1502 1501 1500 1499 1499 1499 1499 1498 1498 1497 1497 1496 1496 1496 1496 1496 1496 1495 1495
1530 1531 1524 1506 1506 1509 1509 1505 1505 1505 1505 1505 1504 1504 1504 1504 1504 1503 1503 1502 1502 1501 1501 1501 1500 1499 1497 1496 1496 1496 1496 1496 1495 1495 1494 1494 1494 1493 1493 1493 1492 1492 1492 1491
1518 1516 1507 1504 1504 1504 1504 1504 1503 1503 1503 1503 1503 1502 1502 1502 1502 1501 1500 1499 1499 1498 1497 1497 1496 1496 1494 1494 1494 1493 1493 1492 1492 1492 1491 1491 1490 1490 1490 1489 1489 1488 1487 1487
1511 1507 1504 1503 1502 1502 1502 1502 1502 1501 1501 1501 1500 1500 1500 1500 1499 1498 1497 1497 1496 1495 1494 1493 1493 1492 1492 1491 1491 1490 1489 1489 1489 1488 1488 1488 1487 1487 1486 1486 1485 1484 1484 1483
1508 1504 1502 1501 1501 1500 1500 1500 1499 1499 1499 1498 1498 1497 1497 1497 1496 1495 1494 1494 1493 1492 1491 1490 1489 1489 1489 1488 1488 1487 1486 1486 1485 1485 1485 1484 1484 1484 1483 1482 1482 1481 1480 1480
1504 1500 1500 1499 1498 1498 1498 1497 1497 1496 1496 1495 1495 1494 1494 1493 1493 1492 1491 1490 1489 1488 1487 1486 1486 1485 1485 1485 1485 1484 1483 1482 1482 1482 1481 1481 1480 1480 1479 1479 1478 1478 1477 1477
1496 1496 1496 1495 1495 1495 1495 1494 1493 1493 1492 1492 1491 1491 1490 1490 1489 1488 1487 1486 1485 1485 1484 1483 1483 1482 1482 1481 1481 1480 1480 1479 1479 1478 1478 1477 1476 1476 1475 1474 1474 1474 1473 1472
1493 1493 1493 1492 1492 1492 1491 1491 1491 1490 1489 1489 1488 1488 1487 1486 1485 1484 1483 1482 1481 1481 1480 1480 1479 1478 1478 1478 1477 1477 1476 1476 1475 1475 1474 1474 1473 1472 1471 1470 1469 1468 1468 1468
1490 1490 1489 1489 1489 1489 1488 1488 1487 1486 1486 1485 1484 1484 1483 1482 1481 1480 1479 1478 1478 1477 1476 1476 1475 1475 1474 1474 1473 1473 1472 1472 1472 1471 1471 1470 1470 1469 1468 1467 1466 1465 1464 1463
1487 1487 1486 1486 1485 1485 1485 1484 1484 1483 1482 1481 1480 1480 1479 1478 1477 1476 1475 1474 1474 1473 1473 1472 1471 1471 1470 1470 1469 1469 1468 1468 1468 1467 1467 1466 1465 1465 1464 1463 1462 1461 1460 1459
1484 1483 1483 1483 1482 1482 1481 1481 1480 1479 1478 1477 1477 1476 1475 1474 1473 1472 1471 1471 1470 1469 1469 1468 1467 1466 1466 1466 1465 1464 1464 1463 1463 1463 1462 1462 1461 1460 1460 1459 1458 1457 1456 1456
1480 1480 1480 1479 1479 1478 1478 1478 1477 1476 1475 1474 1473 1472 1471 1470 1469 1468 1467 1467 1466 1465 1464 1464 1463 1462 1462 1461 1461 1460 1460 1459 1459 1458 1458 1457 1457 1456 1455 1455 1454 1453 1452 1451
1477 1477 1476 1476 1476 1476 1475 1474 1473 1472 1471 1470 1469 1468 1467 1466 1465 1464 1463 1463 1461 1460 1459 1459 1459 1458 1457 1457 1456 1456 1455 1454 1454 1453 1453 1453 1452 1451 1451 1450 1449 1448 1447 1447
1474 1474 1474 1473 1473 1473 1472 1471 1470 1469 1467 1466 1465 1464 1463 1462 1462 1461 1460 1458 1457 1457 1456 1455 1454 1454 1453 1452 1452 1451 1450 1450 1449 1448 1448 1447 1447 1446 1446 1445 1445 1444 1443 1442
1472 1472 1471 1471 1471 1470 1470 1468 1467 1465 1464 1463 1462 1461 1460 1459 1458 1457 1455 1454 1454 1453 1452 1451 1450 1449 1448 1448 1447 1446 1446 1445 1444 1444 1443 1443 1442 1441 1441 1441 1440 1439 1438 1437
1470 1470 1469 1469 1468 1468 1467 1465 1464 1463 1461 1460 1459 1458 1457 1455 1454 1453 1452 1451 1450 1449 1449 1447 1446 1446 1445 1444 1443 1442 1441 1441 1440 1439 1439 1438 1437 1437 1436 1436 1435 1434 1433 1432
1469 1468 1467 1467 1466 1465 1464 1463 1461 1460 1458 1457 1456 1454 1453 1452 1451 1450 1448 1448 1447 1446 1445 1444 1443 1442 1441 1440 1439 1438 1437 1436 1436 1435 1434 1433 1433 1432 1431 1431 1430 1429 1428 1427
1466 1466 1465 1464 1464 1463 1461 1460 1458 1457 1455 1454 1453 1452 1450 1449 1448 1447 1446 1444 1443 1442 1441 1440 1440 1438 1437 1436 1435 1434 1433 1432 1431 1431 1430 1429 1428 1427 1426 1426 1425 1424 1423 1422
1463 1463 1462 1462 1460 1459 1458 1457 1455 1454 1452 1451 1449 1448 1447 1446 1444 1443 1442 1441 1440 1439 1437 1437 1436 1435 1434 1433 1432 1431 1429 1428 1428 1427 1426 1425 1423 1422 1421 1420 1419 1418 1417 1416
1460 1460 1459 1459 1458 1457 1455 1454 1452 1451 1449 1447 1446 1445 1444 1442 1441 1440 1439 1438 1437 1436 1435 1434 1432 1431 1431 1430 1428 1427 1426 1425 1423 1422 1421 1420 1419 1418 1417 1416 1415 1414 1413 1411
1457 1457 1456 1455 1454 1453 1452 1451 1449 1448 1446 1445 1443 1442 1441 1439 1438 1437 1436 1435 1434 1433 1432 1431 1429 1428 1428 1426 1425 1424 1423 1422 1420 1419 1417 1416 1415 1414 1413 1411 1410 1409 1408 1406